TimeEDT,TemperatureF,Dew PointF,Humidity,Sea Level PressureIn,VisibilityMPH,Wind Direction,Wind SpeedMPH,Gust SpeedMPH,PrecipitationIn,Events,Conditions,WindDirDegrees,DateUTC
12:15 AM,44.6,42.8,93,30.17,10.0,Calm,Calm,-,N/A,,Clear,0,2012-09-21 04:15:00
12:35 AM,44.6,42.8,93,30.17,10.0,WNW,3.5,-,N/A,,Clear,290,2012-09-21 04:35:00
12:55 AM,44.6,42.8,93,30.16,10.0,Calm,Calm,-,N/A,,Clear,0,2012-09-21 04:55:00
1:15 AM,44.6,42.8,93,30.17,10.0,Calm,Calm,-,N/A,,Clear,0,2012-09-21 05:15:00
1:35 AM,44.6,42.8,93,30.17,10.0,Calm,Calm,-,N/A,,Scattered Clouds,0,2012-09-21 05:35:00
1:55 AM,42.8,42.8,100,30.17,10.0,Calm,Calm,-,N/A,,Mostly Cloudy,0,2012-09-21 05:55:00
2:15 AM,44.6,42.8,93,30.17,10.0,West,3.5,-,N/A,,Overcast,280,2012-09-21 06:15:00
2:35 AM,46.4,44.6,93,30.16,10.0,WNW,4.6,-,N/A,,Overcast,290,2012-09-21 06:35:00
2:55 AM,46.4,44.6,93,30.16,10.0,West,4.6,-,N/A,,Mostly Cloudy,280,2012-09-21 06:55:00
3:15 AM,44.6,44.6,100,30.16,10.0,Calm,Calm,-,N/A,,Mostly Cloudy,0,2012-09-21 07:15:00
3:35 AM,44.6,44.6,100,30.16,10.0,Calm,Calm,-,N/A,,Mostly Cloudy,0,2012-09-21 07:35:00
3:55 AM,44.6,42.8,93,30.17,10.0,Calm,Calm,-,N/A,,Mostly Cloudy,0,2012-09-21 07:55:00
4:15 AM,46.4,44.6,93,30.17,10.0,Calm,Calm,-,N/A,,Mostly Cloudy,0,2012-09-21 08:15:00
4:35 AM,44.6,44.6,100,30.17,10.0,WNW,3.5,-,N/A,,Mostly Cloudy,290,2012-09-21 08:35:00
4:55 AM,46.4,44.6,93,30.16,10.0,Calm,Calm,-,N/A,,Scattered Clouds,0,2012-09-21 08:55:00
5:15 AM,44.6,42.8,93,30.16,10.0,Calm,Calm,-,N/A,,Clear,0,2012-09-21 09:15:00
5:35 AM,44.6,42.8,93,30.17,10.0,Calm,Calm,-,N/A,,Clear,0,2012-09-21 09:35:00
5:55 AM,42.8,42.8,100,30.17,10.0,Calm,Calm,-,N/A,,Clear,0,2012-09-21 09:55:00
6:15 AM,46.4,46.4,100,30.16,10.0,Calm,Calm,-,N/A,,Clear,0,2012-09-21 10:15:00
6:35 AM,46.4,44.6,93,30.16,10.0,Calm,Calm,-,N/A,,Clear,0,2012-09-21 10:35:00
6:55 AM,44.6,42.8,93,30.16,10.0,Calm,Calm,-,N/A,,Clear,0,2012-09-21 10:55:00
7:15 AM,48.2,46.4,93,30.18,10.0,Calm,Calm,-,N/A,,Clear,0,2012-09-21 11:15:00
7:35 AM,50.0,48.2,94,30.17,10.0,Calm,Calm,-,N/A,,Clear,0,2012-09-21 11:35:00
7:55 AM,51.8,48.2,88,30.17,10.0,NNE,3.5,-,N/A,,Clear,30,2012-09-21 11:55:00
8:15 AM,53.6,48.2,82,30.17,10.0,NNE,3.5,-,N/A,,Clear,30,2012-09-21 12:15:00
8:35 AM,53.6,48.2,82,30.17,10.0,NE,5.8,-,N/A,,Clear,40,2012-09-21 12:35:00
8:55 AM,53.6,51.8,94,30.17,10.0,NE,4.6,-,N/A,,Clear,40,2012-09-21 12:55:00
9:15 AM,53.6,50.0,88,30.18,10.0,NE,5.8,-,N/A,,Clear,50,2012-09-21 13:15:00
9:35 AM,55.4,51.8,88,30.18,10.0,NNE,5.8,-,N/A,,Clear,20,2012-09-21 13:35:00
9:55 AM,55.4,51.8,88,30.19,10.0,NE,3.5,-,N/A,,Clear,40,2012-09-21 13:55:00
10:15 AM,55.4,51.8,88,30.18,10.0,NNE,5.8,-,N/A,,Scattered Clouds,30,2012-09-21 14:15:00
10:35 AM,55.4,51.8,88,30.19,10.0,NNE,6.9,-,N/A,,Mostly Cloudy,30,2012-09-21 14:35:00
10:55 AM,55.4,51.8,88,30.18,10.0,NNE,5.8,-,N/A,,Mostly Cloudy,20,2012-09-21 14:55:00
11:15 AM,55.4,51.8,88,30.19,10.0,NNE,3.5,-,N/A,,Mostly Cloudy,30,2012-09-21 15:15:00
11:35 AM,57.2,53.6,88,30.18,10.0,Calm,Calm,-,N/A,,Mostly Cloudy,0,2012-09-21 15:35:00
11:55 AM,57.2,51.8,82,30.18,10.0,NNE,4.6,-,N/A,,Scattered Clouds,30,2012-09-21 15:55:00
12:15 PM,57.2,53.6,88,30.17,10.0,NNE,4.6,-,N/A,,Mostly Cloudy,20,2012-09-21 16:15:00
12:35 PM,57.2,51.8,82,30.17,10.0,NE,4.6,-,N/A,,Mostly Cloudy,40,2012-09-21 16:35:00
12:55 PM,57.2,53.6,88,30.16,10.0,NE,5.8,-,N/A,,Mostly Cloudy,50,2012-09-21 16:55:00
1:15 PM,57.2,51.8,82,30.15,10.0,NE,4.6,-,N/A,,Scattered Clouds,40,2012-09-21 17:15:00
1:35 PM,57.2,51.8,82,30.15,10.0,East,4.6,-,N/A,,Scattered Clouds,80,2012-09-21 17:35:00
1:55 PM,57.2,53.6,88,30.15,10.0,NE,3.5,-,N/A,,Clear,40,2012-09-21 17:55:00
2:15 PM,57.2,53.6,88,30.14,10.0,Calm,Calm,-,N/A,,Partly Cloudy,0,2012-09-21 18:15:00
2:35 PM,57.2,53.6,88,30.14,10.0,North,4.6,-,N/A,,Scattered Clouds,10,2012-09-21 18:35:00
2:55 PM,57.2,53.6,88,30.13,10.0,NE,5.8,-,N/A,,Partly Cloudy,50,2012-09-21 18:55:00
3:15 PM,57.2,51.8,82,30.13,10.0,NE,4.6,-,N/A,,Partly Cloudy,40,2012-09-21 19:15:00
3:35 PM,57.2,53.6,88,30.12,10.0,East,6.9,-,N/A,,Scattered Clouds,80,2012-09-21 19:35:00
3:55 PM,57.2,53.6,88,30.13,10.0,NE,3.5,-,N/A,,Mostly Cloudy,40,2012-09-21 19:55:00
4:15 PM,57.2,53.6,88,30.12,10.0,ENE,5.8,-,N/A,,Overcast,70,2012-09-21 20:15:00
4:35 PM,57.2,53.6,88,30.13,10.0,East,5.8,-,N/A,,Partly Cloudy,80,2012-09-21 20:35:00
4:55 PM,57.2,53.6,88,30.13,10.0,East,3.5,-,N/A,,Clear,100,2012-09-21 20:55:00
5:15 PM,57.2,53.6,88,30.13,10.0,East,5.8,-,N/A,,Partly Cloudy,90,2012-09-21 21:15:00
5:35 PM,57.2,53.6,88,30.12,10.0,East,5.8,-,N/A,,Clear,90,2012-09-21 21:35:00
5:55 PM,57.2,53.6,88,30.12,10.0,East,5.8,-,N/A,,Clear,80,2012-09-21 21:55:00
6:15 PM,57.2,51.8,82,30.12,10.0,NE,4.6,-,N/A,,Scattered Clouds,50,2012-09-21 22:15:00
6:35 PM,57.2,53.6,88,30.12,10.0,East,5.8,-,N/A,,Overcast,80,2012-09-21 22:35:00
6:55 PM,55.4,53.6,94,30.12,10.0,ENE,5.8,-,N/A,,Overcast,60,2012-09-21 22:55:00
7:15 PM,55.4,53.6,94,30.12,10.0,East,3.5,-,N/A,,Overcast,80,2012-09-21 23:15:00
7:35 PM,57.2,51.8,82,30.12,10.0,ENE,4.6,-,N/A,,Mostly Cloudy,70,2012-09-21 23:35:00
7:55 PM,57.2,51.8,82,30.12,10.0,East,3.5,-,N/A,,Overcast,90,2012-09-21 23:55:00
8:15 PM,55.4,53.6,94,30.12,10.0,Calm,Calm,-,N/A,,Overcast,0,2012-09-22 00:15:00
8:35 PM,55.4,53.6,94,30.11,9.0,Calm,Calm,-,N/A,,Mostly Cloudy,0,2012-09-22 00:35:00
8:55 PM,55.4,53.6,94,30.12,9.0,Calm,Calm,-,0.02,,Overcast,0,2012-09-22 00:55:00
9:15 PM,55.4,53.6,94,30.12,10.0,Calm,Calm,-,N/A,,Overcast,0,2012-09-22 01:15:00
9:35 PM,55.4,55.4,100,30.12,8.0,West,3.5,-,0.01,,Overcast,280,2012-09-22 01:35:00
9:55 PM,55.4,53.6,94,30.11,9.0,Calm,Calm,-,0.02,,Overcast,0,2012-09-22 01:55:00
10:15 PM,55.4,55.4,100,30.11,7.0,NNW,3.5,-,N/A,,Overcast,330,2012-09-22 02:15:00
10:35 PM,55.4,53.6,94,30.13,10.0,Calm,Calm,-,N/A,,Overcast,0,2012-09-22 02:35:00
10:55 PM,55.4,53.6,94,30.12,6.0,Calm,Calm,-,N/A,,Overcast,0,2012-09-22 02:55:00
11:15 PM,53.6,51.8,94,30.10,7.0,Calm,Calm,-,0.01,,Overcast,0,2012-09-22 03:15:00
11:35 PM,53.6,53.6,100,30.09,10.0,NE,3.5,-,0.01,,Overcast,40,2012-09-22 03:35:00
11:55 PM,53.6,53.6,100,30.07,10.0,NE,4.6,-,0.01,,Mostly Cloudy,40,2012-09-22 03:55:00